Location: Namasale
(1.5000°N, 32.6167°E)
Time: 18:42:41
(UTC+00:00)

Hubble Space Telescope - Visible Passes

Search period start: 03 December 2021 00:00
Search period end: 13 December 2021 00:00
Orbit: 534 x 538 km, 28.5° (Epoch: 02 December)

Date Brightness Start Highest point End Pass type
(mag) Time Alt. Az. Time Alt. Az. Time Alt. Az.
03 Dec 2.8 17:23:02 10° SSW 17:25:21 19° SSE 17:25:21 19° SSE visible
04 Dec 2.1 17:11:27 10° SSW 17:14:54 28° SSE 17:14:54 28° SSE visible
05 Dec 1.5 17:00:01 10° SW 17:03:52 38° SSE 17:04:29 36° SE visible
06 Dec 3.2 03:14:50 10° N 03:16:35 12° NNE 03:18:19 10° NE visible
06 Dec 1.0 16:48:40 10° SW 16:52:43 55° SSE 16:54:05 36° E visible
07 Dec 3.0 03:02:51 10° NNW 03:05:30 16° NNE 03:08:08 10° ENE visible
07 Dec 0.7 16:37:25 10° WSW 16:41:33 80° SSE 16:43:43 27° ENE visible
08 Dec 2.6 02:51:10 10° NNW 02:54:23 22° NNE 02:57:36 10° E visible
08 Dec 0.8 16:26:17 10° WSW 16:30:24 72° NNW 16:33:20 18° NE visible
09 Dec 2.1 02:40:45 16° NNW 02:43:15 30° NNE 02:46:52 10° E visible
09 Dec 1.4 16:15:14 10° WSW 16:19:14 49° NNW 16:22:58 12° NE visible
10 Dec 1.6 02:30:23 26° NNW 02:32:06 41° NNE 02:36:00 10° E visible
10 Dec 1.9 16:04:17 10° W 16:08:05 35° NNW 16:11:52 10° NE visible
11 Dec 1.0 02:20:00 45° NNW 02:20:57 59° NNE 02:25:00 10° ESE visible
12 Dec 0.5 02:09:37 81° NNW 02:09:47 86° NNE 02:13:54 10° ESE visible
